Regional Weather Roundup
Issued by NWS

Home | Current Version | Previous Version | Graphics & Text | Print | Product List | Glossary On
Versions: 1 2 3 4 5 6 7 8 9 10 11 12 13 14 15 16 17 18 19 20 21 22 23 24 25 26 27 28 29 30 31 32 33 34 35 36 37 38 39 40 41 42 43 44 45 46 47 48 49 50
000
ASUS45 KCYS 191810
RWRWY

WYOMING REGIONAL WEATHER ROUNDUP
NATIONAL WEATHER SERVICE CHEYENNE WY
1200 PM MDT TUE AUG 19 2014

NOTE:  "FAIR" INDICATES FEW OR NO CLOUDS BELOW 12,000 FEET
WITH NO SIGNIFICANT WEATHER AND/OR OBSTRUCTIONS TO VISIBILITY.

WYZ001-191900-
YELLOWSTONE NATIONAL PARK

CITY           SKY/WX    TMP DP  RH WIND       PRES   REMARKS
LK YELLOWSTONE   N/A     59  45  59 E3        30.16F
6HR MIN TEMP:  37; 6HR MAX TEMP:  59;

W YELLOWSTONE  NOT AVBL

$$
WYZ002>013-054>058-071-098>099-191900-
NORTHERN WYOMING

CITY           SKY/WX    TMP DP  RH WIND       PRES   REMARKS
JACKSON          N/A     66  43  42 S5        30.06F
CODY           PTSUNNY   82  41  23 NE5       29.90F
GREYBULL       MOSUNNY   82  46  28 SE6       29.84F
6HR MIN TEMP:  54; 6HR MAX TEMP:  82;

WORLAND        MOSUNNY   81  48  31 NW5       29.85F
6HR MIN TEMP:  53; 6HR MAX TEMP:  81;

SHERIDAN       MOSUNNY   88  42  20 NE6       29.82F
6HR MIN TEMP:  48; 6HR MAX TEMP:  89;

BUFFALO        MOSUNNY   85  39  19 VRB3      29.91F
6HR MIN TEMP:  59; 6HR MAX TEMP:  85;

GILLETTE       SUNNY     85  47  26 CALM      29.86F
6HR MIN TEMP:  60; 6HR MAX TEMP:  85;

HULETT         FAIR      82  52  34 MISG      29.87
NEWCASTLE      FAIR      81  45  28 MISG      29.87

$$
WYZ014>020-022>026-101>103-191900-
CENTRAL WYOMING

CITY           SKY/WX    TMP DP  RH WIND       PRES   REMARKS
BIG PINEY      CLOUDY    66  41  40 VRB5      30.12F
6HR MIN TEMP:  42; 6HR MAX TEMP:  66;

PINEDALE       CLOUDY    70  36  28 CALM      30.11F
DUBOIS         FAIR      73  32  21 E5        30.06F
LANDER         PTSUNNY   83  39  21 SE9       29.97F
6HR MIN TEMP:  53; 6HR MAX TEMP:  83;

RIVERTON       PTSUNNY   76  41  28 S6        29.98F
6HR MIN TEMP:  54; 6HR MAX TEMP:  77;

CASPER         PTSUNNY   83  37  19 SW17G25   29.95F
6HR MIN TEMP:  47; 6HR MAX TEMP:  84;

DOUGLAS        MOSUNNY   85  41  21 SW5       29.93F
6HR MIN TEMP:  50; 6HR MAX TEMP:  85;


$$
WYZ021-027>030-104>119-191900-
SOUTHERN WYOMING

CITY           SKY/WX    TMP DP  RH WIND       PRES   REMARKS
EVANSTON       LGT RAIN  55  52  89 SW8       30.17S
6HR MIN TEMP:  55; 6HR MAX TEMP:  63; 6HR PCP:  0.02;

KEMMERER       LGT RAIN  63  43  48 S14       30.17R
FORT BRIDGER   CLOUDY    59  52  77 SE12      30.17F
ROCK SPRINGS   LGT RAIN  60  47  61 SW21G29   30.14R
DIXON          MOCLDY    71  41  33 W10       30.16R
RAWLINS        CLOUDY    72  37  28 W26G39    30.10F
6HR MIN TEMP:  47; 6HR MAX TEMP:  72;

SARATOGA       FAIR      73  37  27 MISG      30.14S
LARAMIE        PTSUNNY   76  39  26 SW16G25   30.12F
6HR MIN TEMP:  44; 6HR MAX TEMP:  76;

CHEYENNE       PTSUNNY   84  38  19 NW14G21   30.01F
6HR MIN TEMP:  54; 6HR MAX TEMP:  84;

TORRINGTON     MOSUNNY   85  46  25 SW8       29.87F
6HR MIN TEMP:  57; 6HR MAX TEMP:  85;

PINE BLUFFS    FAIR      82  46  28 W3        29.95F

$$


USA.gov is the U.S. government's official web portal to all federal, state and local government web resources and services.